This demonstration page uses our WeatherBlox Daily Observations layout. Learn more.

Left ArrowRight Arrow

Hourly Observations for May 21, 2020

Temp ( °F °C ) Dew Point ( °F °C ) Humidity (%) Winds ( mph kmh ) Pressure ( in mb ) Visibility ( mi km ) Precip ( " mm )
12:19 am 00:19 Cloudy 54 12.2 51 10.6 90 90 ENE 7 11 30.12 1020 10 16 N/A
12:53 am 00:53 Cloudy 54 12.2 51 10.6 90 90 E 7 11 30.12 1020 10 16 N/A
1:53 am 01:53 Cloudy 54 12.2 52 11.1 93 93 E 8 13 30.11 1020 10 16 0.00 0.00
2:53 am 02:53 Cloudy 54 12.2 52 11.1 93 93 E 6 9 30.09 1019 10 16 N/A
3:53 am 03:53 Cloudy 54 12.2 52 11.1 93 93 E 10 17 30.09 1019 10 16 N/A
4:53 am 04:53 Cloudy 55 12.8 52 11.1 90 90 E 10 17 30.08 1019 10 16 N/A
5:53 am 05:53 Cloudy 55 12.8 52 11.1 90 90 E 7 11 30.08 1019 10 16 N/A
6:53 am 06:53 Cloudy 55 12.8 52 11.1 90 90 E 10 17 30.10 1019 10 16 N/A
7:31 am 07:31 Cloudy 55 12.8 52 11.1 90 90 E 9 15 30.10 1019 10 16 N/A
7:53 am 07:53 Cloudy 56 13.3 52 11.1 87 87 E 8 13 30.10 1019 10 16 N/A
8:05 am 08:05 Cloudy 56 13.3 52 11.1 87 87 E 8 13 30.10 1019 10 16 N/A
8:53 am 08:53 Cloudy 56 13.3 52 11.1 87 87 E 7 11 30.11 1020 10 16 N/A
9:53 am 09:53 Cloudy 58 14.4 53 11.7 84 84 E 9 15 30.11 1020 10 16 N/A
10:20 am 10:20 Cloudy 59 15 54 12.2 83 83 E 8 13 30.12 1020 10 16 N/A
10:53 am 10:53 Cloudy 59 15 54 12.2 83 83 E 8 13 30.11 1020 10 16 N/A
11:53 am 11:53 Cloudy 60 15.6 54 12.2 80 80 E 8 13 30.12 1020 10 16 N/A
12:53 pm 12:53 Cloudy with Light Rain 59 15 56 13.3 90 90 E 6 9 30.11 1020 6 10 0.02 0.51
1:53 pm 13:53 Cloudy with Light Rain 60 15.6 58 14.4 93 93 ENE 8 13 30.10 1019 9 14 0.04 1.02
2:38 pm 14:38 Cloudy 61 16.1 57 13.9 87 87 E 9 15 30.09 1019 10 16 0.00 0.00
2:53 pm 14:53 Cloudy 61 16.1 57 13.9 87 87 E 9 15 30.09 1019 10 16 0.00 0.00
3:53 pm 15:53 Cloudy with Light Rain 61 16.1 58 14.4 90 90 ESE 3 6 30.08 1019 10 16 0.03 0.76
4:53 pm 16:53 Cloudy 61 16.1 58 14.4 90 90 E 9 15 30.06 1018 10 16 0.00 0.00
5:31 pm 17:31 Cloudy 62 16.7 59 15 90 90 E 7 11 30.05 1018 10 16 N/A
5:53 pm 17:53 Cloudy 62 16.7 58 14.4 86 86 E 8 13 30.06 1018 10 16 N/A
6:09 pm 18:09 Cloudy 61 16.1 57 13.9 87 87 ESE 6 9 30.06 1018 10 16 N/A
6:53 pm 18:53 Cloudy 62 16.7 57 13.9 84 84 VRB 5 7 30.06 1018 10 16 N/A
7:53 pm 19:53 Cloudy 62 16.7 58 14.4 86 86 N N/A 30.06 1018 10 16 N/A
8:35 pm 20:35 Cloudy 61 16.1 58 14.4 90 90 E 5 7 30.06 1018 10 16 N/A
8:53 pm 20:53 Cloudy 61 16.1 58 14.4 90 90 ENE 3 6 30.06 1018 10 16 N/A
9:21 pm 21:21 Cloudy 61 16.1 58 14.4 90 90 E 3 6 30.06 1018 10 16 N/A
9:53 pm 21:53 Cloudy 60 15.6 58 14.4 93 93 ENE 9 15 30.07 1018 7 11 0.00 0.00
10:41 pm 22:41 Cloudy 60 15.6 58 14.4 93 93 E 3 6 30.08 1018 10 16 N/A
10:53 pm 22:53 Cloudy 60 15.6 58 14.4 93 93 E 3 6 30.08 1019 10 16 N/A
11:27 pm 23:27 Cloudy 60 15.6 59 15 96 96 ENE 3 6 30.08 1018 10 16 N/A
11:53 pm 23:53 Cloudy 60 15.6 59 15 96 96 N N/A 30.07 1018 9 14 N/A

Powered by AerisWeather